DW7479 Weather Reports


time (UTC)temp
C
wind
direction
speed
KPH
gust
KPH
rain 1hr
cm
rain 24hr
cm
rain mn
cm
humidity
%
barometer
mb
20260506123029 15 346 3.2 6.4 0.00 0.03 0.00 77 854.4
20260506122531 15 333 3.2 6.4 0.00 0.03 0.00 76 854.4
20260506122027 15 345 3.2 6.4 0.00 0.03 0.00 76
20260506121527 15 335 4.8 8.0 0.00 0.03 0.00 77
20260506121026 15 325 4.8 8.0 0.00 0.03 0.00 77
20260506120530 15 323 4.8 8.0 0.00 0.03 0.00 77
20260506120026 15 326 4.8 6.4 0.00 0.03 0.00 77
20260506115525 15 327 3.2 6.4 0.00 0.03 0.00 77
20260506115025 15 332 4.8 8.0 0.00 0.03 0.00 77
20260506114525 15 331 4.8 8.0 0.00 0.03 0.00 77
20260506114029 15 335 4.8 8.0 0.00 0.03 0.00 77
20260506113525 14 360 4.8 6.4 0.00 0.03 0.00 77
20260506113025 14 341 1.6 4.8 0.00 0.03 0.00 77
20260506112524 13 337 1.6 4.8 0.00 0.03 0.00 78
20260506112024 13 22 0.0 3.2 0.00 0.03 0.00 77
20260506111523 13 23 0.0 0.0 0.00 0.03 0.00 76
20260506111026 13 23 0.0 1.6 0.00 0.03 0.00 76
20260506110525 13 23 0.0 3.2 0.00 0.03 0.00 76
20260506110024 13 24 0.0 3.2 0.00 0.03 0.00 76
20260506105524 13 79 0.0 1.6 0.00 0.03 0.00 76
20260506105025 13 80 0.0 3.2 0.00 0.03 0.00 76
20260506104522 13 80 0.0 3.2 0.00 0.03 0.00 76
20260506104022 13 82 1.6 6.4 0.00 0.03 0.00 75
20260506103521 13 83 0.0 6.4 0.00 0.03 0.00 76
20260506103032 14 14 1.6 8.0 0.00 0.03 0.00 76
20260506102522 14 351 1.6 8.0 0.00 0.03 0.00 76
20260506102021 14 355 3.2 8.0 0.00 0.03 0.00 76
20260506101522 13 5 3.2 8.0 0.00 0.03 0.00 76
20260506101019 13 340 3.2 8.0 0.00 0.03 0.00 76
20260506100519 13 342 4.8 8.0 0.00 0.03 0.00 76
20260506100018 13 55 0.0 4.8 0.00 0.03 0.00 75
20260506095518 13 69 1.6 6.4 0.00 0.03 0.00 75
20260506095017 14 349 3.2 6.4 0.00 0.03 0.00 75
20260506094519 14 313 3.2 6.4 0.00 0.03 0.00 75
20260506094021 14 327 3.2 6.4 0.00 0.03 0.00 74
20260506093517 14 334 4.8 6.4 0.00 0.03 0.00 75
20260506093018 14 326 0.0 3.2 0.00 0.03 0.00 74
20260506092519 14 326 0.0 4.8 0.00 0.03 0.00 75
20260506092021 14 326 1.6 4.8 0.00 0.03 0.00 74
20260506091616 14 326 1.6 4.8 0.00 0.03 0.00 75
20260506091016 14 327 1.6 6.4 0.00 0.03 0.00 75
20260506090515 14 329 3.2 6.4 0.00 0.03 0.00 75
20260506090015 13 19 0.0 3.2 0.00 0.05 0.00 74
20260506085518 13 19 0.0 3.2 0.00 0.05 0.00 74
20260506085015 13 19 0.0 3.2 0.00 0.05 0.00 73
20260506084514 13 19 0.0 1.6 0.00 0.05 0.00 73
20260506084013 13 19 0.0 1.6 0.00 0.05 0.00 73
20260506083513 13 19 0.0 1.6 0.00 0.05 0.00 73
20260506083012 14 19 0.0 1.6 0.00 0.05 0.00 73
20260506082516 14 19 0.0 1.6 0.00 0.05 0.00 73
20260506082010 14 19 0.0 3.2 0.00 0.05 0.00 72
20260506081510 14 19 1.6 3.2 0.00 0.05 0.00 72
20260506081009 14 15 0.0 3.2 0.00 0.05 0.00 72
20260506080510 15 338 0.0 3.2 0.00 0.05 0.00 72
20260506073504 15 319 3.2 8.0 0.00 0.10 0.00 72
20260506073007 15 304 4.8 9.7 0.00 0.10 0.00 72
20260506072503 15 321 4.8 9.7 0.00 0.10 0.00 72
20260506072003 15 324 4.8 6.4 0.00 0.10 0.00 72
20260506071502 15 327 3.2 6.4 0.00 0.10 0.00 72
20260506071002 15 319 3.2 6.4 0.00 0.10 0.00 72
20260506070503 15 315 4.8 8.0 0.00 0.10 0.00 72
20260506062102 16 333 8.0 14.5 0.00 0.10 0.10 71
20260506061558 16 304 6.4 9.7 0.00 0.10 0.10 71
20260506061102 16 314 4.8 8.0 0.00 0.10 0.10 71
20260506060558 16 320 4.8 8.0 0.00 0.10 0.10 71
20260506060121 16 319 4.8 6.4 0.00 0.10 0.10 72
20260506051055 16 317 3.2 6.4 0.00 0.10 0.10 71 803.7
20260506050556 16 326 0.0 3.2 0.00 0.10 0.10 70 803.7
20260506045100 16 329 1.6 4.8 0.00 0.10 0.10 70 803.7
20260506044610 16 331 1.6 4.8 0.00 0.10 0.10 71 803.7
20260506044055 16 334 1.6 3.2 0.00 0.10 0.10 71 803.7
20260506043554 16 340 0.0 3.2 0.00 0.10 0.10 70 803.7
20260506043054 16 348 0.0 3.2 0.00 0.10 0.10 70 803.7
20260506042554 16 319 0.0 1.6 0.00 0.10 0.10 69 803.7
20260506042054 16 318 0.0 3.2 0.00 0.10 0.10 69 803.7
20260506041556 16 318 0.0 3.2 0.00 0.10 0.10 69 803.7
20260506041054 17 322 0.0 1.6 0.00 0.10 0.10 68 803.7
20260506040553 17 322 0.0 1.6 0.00 0.10 0.10 68 803.7
20260506040053 17 322 0.0 3.2 0.00 0.10 0.10 67 803.7
20260506035553 17 323 0.0 3.2 0.00 0.10 0.10 67 803.7
20260506035053 17 328 0.0 3.2 0.00 0.10 0.10 67 803.7
20260506034553 17 328 0.0 4.8 0.00 0.10 0.10 67 803.7
20260506034052 18 328 1.6 4.8 0.00 0.10 0.10 67 803.7
20260506033552 18 328 1.6 4.8 0.00 0.10 0.10 67 803.7
20260506033052 18 328 1.6 4.8 0.00 0.10 0.10 67 803.7
20260506032556 18 328 1.6 4.8 0.00 0.10 0.10 66 803.7
20260506032052 18 328 3.2 4.8 0.00 0.10 0.10 65 803.7
20260506031557 18 320 0.0 1.6 0.00 0.10 0.10 64 803.7
20260506031050 18 320 0.0 1.6 0.00 0.10 0.10 63 803.7
20260506030554 18 320 0.0 3.2 0.00 0.10 0.10 63 803.7
20260506030052 18 320 0.0 3.2 0.00 0.10 0.10 63 803.7
20260506025551 18 321 1.6 4.8 0.00 0.10 0.10 63 803.7
20260506025050 18 320 3.2 6.4 0.00 0.10 0.10 62 803.7
20260506024558 18 321 3.2 6.4 0.00 0.10 0.10 62 803.7
20260506024050 18 321 3.2 6.4 0.00 0.10 0.10 62 803.7
20260506023552 19 326 3.2 6.4 0.00 0.10 0.10 62 803.7
20260506023050 19 317 3.2 6.4 0.00 0.10 0.10 61 803.7
20260506022549 19 319 4.8 9.7 0.00 0.10 0.10 62 803.7
20260506022049 19 327 4.8 9.7 0.00 0.10 0.10 62 803.7
20260506021549 19 340 6.4 9.7 0.00 0.10 0.10 62 803.7
20260506021049 19 342 6.4 9.7 0.00 0.10 0.10 62 803.7
20260506020549 19 331 6.4 9.7 0.00 0.10 0.10 62 803.7
20260506020048 19 323 6.4 9.7 0.00 0.10 0.10 61 803.7
20260506015548 19 312 6.4 9.7 0.00 0.10 0.10 61 803.7
20260506015048 19 327 6.4 9.7 0.00 0.10 0.10 61 803.7
20260506014547 19 321 4.8 12.9 0.00 0.10 0.10 62 803.7
20260506014046 19 319 4.8 14.5 0.00 0.10 0.10 62 803.7
20260506013548 19 319 8.0 16.1 0.00 0.10 0.10 62 803.7
20260506013046 19 302 11.3 16.1 0.00 0.10 0.10 62 803.7
20260506012546 19 292 11.3 16.1 0.00 0.10 0.10 61 803.7
20260506012046 19 281 11.3 16.1 0.00 0.10 0.10 61 803.7
20260506011545 19 293 9.7 16.1 0.00 0.10 0.10 61 803.7
20260506011045 19 296 11.3 17.7 0.00 0.10 0.10 61 803.7
20260506010546 19 298 9.7 16.1 0.00 0.10 0.10 61 803.7
20260506010046 19 298 6.4 12.9 0.00 0.10 0.10 62 803.7
20260506005545 18 302 4.8 11.3 0.00 0.10 0.10 61 803.7
20260506005044 19 280 4.8 11.3 0.00 0.10 0.10 61 803.7
20260506004544 18 294 3.2 12.9 0.00 0.10 0.10 62 803.7
20260506004044 18 273 4.8 12.9 0.00 0.10 0.10 62 803.7
20260506003544 18 309 4.8 12.9 0.00 0.10 0.10 62 803.7
20260506003044 18 308 8.0 14.5 0.00 0.10 0.10 62 803.7
20260506002546 18 288 8.0 14.5 0.00 0.10 0.10 62 803.7
20260506002043 18 291 3.2 12.9 0.00 0.10 0.10 62 803.7
20260506001546 18 301 8.0 14.5 0.00 0.10 0.10 62 803.7
20260506001043 18 302 6.4 14.5 0.00 0.10 0.10 62 803.7
20260506000543 18 269 3.2 12.9 0.00 0.10 0.10 62 803.7
20260506000043 18 300 3.2 9.7 0.00 0.10 0.10 62 803.7
20260505235545 18 336 6.4 14.5 0.00 0.10 0.10 62 803.7
20260505235045 18 284 8.0 14.5 0.00 0.10 0.10 62 803.7
20260505234547 18 309 0.0 8.0 0.00 0.10 0.10 62 803.7
20260505234044 18 335 1.6 6.4 0.00 0.10 0.10 62 803.7
20260505233539 18 355 3.2 6.4 0.00 0.10 0.10 62 803.7
20260505233039 18 298 3.2 6.4 0.00 0.10 0.10 63 803.7
20260505232538 18 302 3.2 11.3 0.00 0.10 0.10 63 803.7
20260505232039 18 294 4.8 11.3 0.00 0.10 0.10 63 803.7
20260505231550 18 338 4.8 9.7 0.00 0.10 0.10 63 805.1
20260505231038 18 302 3.2 8.0 0.00 0.10 0.10 64 805.1
20260505230537 18 314 4.8 16.1 0.00 0.10 0.10 63 805.1
20260505230051 18 297 4.8 16.1 0.00 0.10 0.10 63 805.1
20260505225537 18 301 9.7 14.5 0.00 0.10 0.10 64
20260505225041 18 317 6.4 12.9 0.00 0.10 0.10 63
20260505224537 18 277 3.2 12.9 0.00 0.10 0.10 63
20260505224035 18 286 6.4 12.9 0.00 0.10 0.10 65
20260505223536 18 275 8.0 17.7 0.00 0.10 0.10 64
20260505223035 18 296 9.7 17.7 0.00 0.10 0.10 65
20260505222534 18 331 11.3 20.9 0.00 0.10 0.10 65
20260505222034 18 333 14.5 20.9 0.00 0.10 0.10 65
20260505221535 18 336 12.9 17.7 0.00 0.10 0.10 65
20260505221036 18 329 6.4 17.7 0.00 0.10 0.10 65
20260505220533 17 325 11.3 17.7 0.00 0.10 0.10 65
20260505220033 17 315 9.7 17.7 0.00 0.10 0.10 66
20260505215534 17 321 11.3 17.7 0.00 0.10 0.10 65
20260505215033 17 305 12.9 20.9 0.00 0.10 0.10 65
20260505214533 17 309 12.9 20.9 0.00 0.10 0.10 65
20260505214032 17 329 16.1 20.9 0.00 0.10 0.10 65
20260505213533 17 328 12.9 20.9 0.00 0.10 0.10 65
20260505213030 17 289 12.9 17.7 0.00 0.10 0.10 65
20260505212531 17 338 9.7 17.7 0.00 0.10 0.10 66
20260505212031 17 293 11.3 19.3 0.00 0.10 0.10 66
20260505211529 17 336 16.1 19.3 0.00 0.10 0.10 66
20260505211028 17 299 14.5 19.3 0.00 0.10 0.10 67
20260505210529 17 344 9.7 19.3 0.00 0.10 0.10 66
20260505210028 17 306 11.3 20.9 0.00 0.10 0.10 66
20260505205528 17 306 9.7 19.3 0.00 0.10 0.10 67
20260505205028 17 289 14.5 17.7 0.00 0.10 0.10 67
20260505204526 17 302 14.5 17.7 0.00 0.10 0.10 66
20260505204025 17 302 12.9 16.1 0.00 0.10 0.10 67
20260505203526 17 360 3.2 12.9 0.00 0.10 0.10 66
20260505203025 17 323 6.4 12.9 0.00 0.10 0.10 67
20260505202525 17 312 6.4 14.5 0.00 0.10 0.10 67
20260505202024 17 317 8.0 14.5 0.00 0.10 0.10 67
20260505201524 16 342 8.0 14.5 0.00 0.10 0.10 67
20260505201025 16 313 8.0 16.1 0.00 0.10 0.10 67
20260505200527 17 340 9.7 19.3 0.00 0.10 0.10 67
20260505200027 17 329 12.9 20.9 0.00 0.10 0.10 67
20260505195528 17 294 9.7 19.3 0.00 0.10 0.10 67
20260505195023 17 293 8.0 17.7 0.00 0.10 0.10 66
20260505194523 17 290 11.3 19.3 0.00 0.10 0.10 66
20260505194021 17 288 14.5 19.3 0.00 0.10 0.10 67
20260505193524 16 288 12.9 19.3 0.00 0.10 0.10 67
20260505193021 16 306 12.9 20.9 0.00 0.10 0.10 67
20260505192526 16 325 12.9 20.9 0.00 0.10 0.10 67
20260505192020 16 317 12.9 20.9 0.00 0.10 0.10 66
20260505191522 16 287 12.9 20.9 0.00 0.10 0.10 66
20260505191019 16 291 8.0 16.1 0.00 0.10 0.10 66
20260505190519 16 279 8.0 19.3 0.00 0.10 0.10 66
20260505190019 16 286 14.5 19.3 0.00 0.10 0.10 66
20260505185519 16 300 11.3 16.1 0.00 0.10 0.10 66
20260505185019 16 321 8.0 20.9 0.00 0.10 0.10 66
20260505184518 16 319 8.0 20.9 0.00 0.10 0.10 66
20260505184017 16 288 8.0 19.3 0.00 0.10 0.10 67
20260505183515 16 310 11.3 19.3 0.00 0.10 0.10 66
20260505183014 16 317 12.9 17.7 0.00 0.10 0.10 68
20260505182512 16 300 9.7 17.7 0.00 0.10 0.10 68
20260505182016 16 310 12.9 17.7 0.00 0.10 0.10 67
20260505181513 16 304 11.3 17.7 0.00 0.10 0.10 68
20260505181010 16 311 11.3 16.1 0.00 0.10 0.10 68
20260505180509 16 323 8.0 16.1 0.00 0.10 0.10 67
20260505180023 16 291 6.4 16.1 0.00 0.13 0.10 69
20260505175508 16 310 8.0 14.5 0.00 0.13 0.10 69
20260505175006 16 297 6.4 12.9 0.00 0.13 0.10 69
20260505174506 15 310 8.0 12.9 0.00 0.13 0.10 69
20260505174006 15 303 6.4 9.7 0.00 0.13 0.10 69
20260505173506 15 290 6.4 11.3 0.00 0.13 0.10 69
20260505173004 15 302 8.0 14.5 0.00 0.13 0.10 70
20260505172505 15 284 8.0 14.5 0.00 0.13 0.10 71
20260505172007 15 297 6.4 12.9 0.00 0.13 0.10 71
20260505171502 15 302 8.0 16.1 0.00 0.13 0.10 71
20260505171001 15 307 9.7 16.1 0.00 0.13 0.10 72 722.6
20260505170603 15 295 9.7 14.5 0.00 0.13 0.10 72 722.6
20260505170059 15 307 8.0 14.5 0.00 0.13 0.10 73 722.6
20260505165557 15 287 9.7 14.5 0.00 0.13 0.10 73 722.6
20260505165056 15 291 6.4 11.3 0.00 0.13 0.10 73
20260505164555 15 323 6.4 16.1 0.03 0.13 0.10 74
20260505164055 15 324 8.0 16.1 0.03 0.13 0.10 74
20260505163553 15 297 11.3 14.5 0.03 0.13 0.10 74
20260505163053 15 288 6.4 12.9 0.03 0.13 0.10 74
20260505162553 15 313 9.7 12.9 0.03 0.13 0.10 74
20260505162053 15 297 8.0 14.5 0.03 0.13 0.10 75
20260505161555 15 311 9.7 14.5 0.03 0.13 0.10 75
20260505161053 15 306 8.0 12.9 0.03 0.13 0.10 75
20260505160551 15 326 8.0 12.9 0.03 0.13 0.10 75
20260505153049 14 325 8.0 12.9 0.00 0.10 0.08 77
20260505152548 14 320 6.4 14.5 0.00 0.10 0.08 77
20260505152050 14 311 8.0 14.5 0.00 0.10 0.08 77
20260505151548 14 333 8.0 12.9 0.00 0.10 0.08 77
20260505151048 14 333 6.4 12.9 0.00 0.10 0.08 77
20260505150547 14 330 6.4 9.7 0.00 0.10 0.08 78
20260505140539 13 355 3.2 6.4 0.00 0.10 0.08 78 816.6
20260505125025 13 351 3.2 4.8 0.00 0.10 0.08 77
20260505124524 13 355 3.2 6.4 0.00 0.10 0.08 77
20260505124023 13 355 3.2 6.4 0.00 0.10 0.08 77
20260505123524 13 335 3.2 6.4 0.00 0.10 0.08 77